Flag for Mongolia Weather past 2 weeks in Ulaanbaatar, Mongolia

Now
5 °F

Passing clouds.


Feels Like: -8 °F
Forecast: -2 / 14 °F
Wind: 8 mph from Northwest

Location: Ulan-Bator

Current Time: Feb 28, 2015 at 1:57:12 AM

Latest Report: Feb 28, 2015 at 1:30 AM


Visibility: N/A

Pressure: 30.01 "Hg

Humidity: 66%

Dew point: -4 °F

Location of UlaanbaatarLocation

Historic Weather in Ulaanbaatar — Graph

°F

Ulaanbaatar temperature yesterday

Maximum temperature yesterday: 19 °F (at 3:00 PM)
Minimum temperature yesterday: 7 °F (at 11:00 PM)
Average temperature yesterday: 13 °F

Past Weeks' High & Low Weather Summary

 TemperatureHumidityPressure
High36 °F (Feb 14, 2:30 PM)86% (Feb 14, 10:30 PM)30.24 "Hg (Feb 14, 10:30 PM)
Low-24 °F (Feb 23, 7:30 AM)21% (Feb 26, 4:30 PM)29.47 "Hg (Feb 13, 3:30 PM)
Average6 °F60%29.93 "Hg
* Reported Midnight between Feb 12 and Feb 13 — Feb 28 12:30 AM, Ulaanbaatar, Weather by CustomWeather, © 2015

Note: Actual official high and low records may vary slightly from our data, if they occured in-between our weather recording intervals... More about our weather records

Advertising

Ulaanbaatar weather history for previous 24 hours

 ConditionsComfort  
Time TempWeatherWind HumidityBarometerVisibility
12:30 AM
Sat, Feb 28
5 °FPassing clouds.3 mph66%30.01 "HgN/A
12:00 AM5 °FPassing clouds.6 mph72%30.01 "HgN/A
11:30 PM
Fri, Feb 27
7 °FPassing clouds.6 mph72%30.01 "HgN/A
11:00 PM7 °FPassing clouds.6 mph78%29.98 "HgN/A
10:30 PM9 °FPassing clouds.10 mph72%29.98 "HgN/A
10:00 PM9 °FPassing clouds.8 mph78%29.98 "HgN/A
9:30 PM9 °FPassing clouds.6 mph78%29.98 "HgN/A
9:00 PM12 °FPassing clouds.10 mph73%29.98 "HgN/A
8:30 PM12 °FPassing clouds.8 mph79%29.95 "HgN/A
8:00 PM12 °FPassing clouds.8 mph73%29.95 "HgN/A
7:30 PM16 °FPartly sunny.8 mph67%29.95 "HgN/A
7:00 PM16 °FPartly sunny.10 mph57%29.92 "HgN/A
6:30 PM18 °FPartly sunny.10 mph45%29.92 "HgN/A
6:00 PM19 °FPartly sunny.3 mph49%29.89 "HgN/A
5:30 PM19 °FPartly sunny.3 mph49%29.89 "HgN/A
5:00 PM19 °FScattered clouds.1 mph49%29.89 "HgN/A
4:30 PM19 °FScattered clouds.3 mph58%29.89 "HgN/A
4:00 PM19 °FScattered clouds.3 mph58%29.89 "HgN/A
3:30 PM19 °FScattered clouds.3 mph58%29.92 "HgN/A
3:00 PM19 °FScattered clouds.3 mph58%29.92 "HgN/A
2:30 PM18 °FLight snow. Partly sunny.8 mph62%29.92 "Hg4 mi
2:00 PM18 °FLight snow. Partly sunny.13 mph68%29.95 "Hg3 mi
1:30 PM16 °FLight snow. Partly sunny.15 mph73%29.95 "Hg2 mi
1:00 PM16 °FLight snow. Partly sunny.15 mph62%29.95 "Hg2 mi
12:30 PM14 °FLight snow. Partly sunny.17 mph67%29.98 "HgN/A
11:30 AM14 °FLight snow. Partly sunny.17 mph48%29.98 "HgN/A
11:00 AM14 °FLight snow. Partly sunny.15 mph37%29.98 "HgN/A
10:30 AM14 °FPartly sunny.20 mph37%29.98 "HgN/A
10:00 AM12 °FPartly sunny.17 mph37%29.98 "HgN/A
9:30 AM12 °FPartly sunny.15 mph37%29.98 "HgN/A
9:00 AM12 °FPartly sunny.13 mph37%29.98 "HgN/A
8:30 AM10 °FPassing clouds.8 mph40%29.98 "HgN/A
8:00 AM9 °FPassing clouds.1 mph39%29.98 "HgN/A
7:30 AM9 °FPassing clouds.3 mph39%29.98 "HgN/A
7:00 AM10 °FPassing clouds.3 mph40%29.98 "HgN/A
6:30 AM10 °FPassing clouds.1 mph36%30.01 "HgN/A
6:00 AM12 °FPassing clouds.6 mph34%30.01 "HgN/A
5:00 AM12 °FPassing clouds.13 mph34%30.01 "HgN/A
4:00 AM10 °FClear.17 mph33%30.01 "Hg10 mi
3:00 AM10 °FClear.17 mph33%30.04 "Hg10 mi
2:00 AM12 °FClear.17 mph31%30.04 "Hg10 mi
1:00 AM12 °FClear.15 mph31%30.04 "Hg10 mi
Weather by CustomWeather, © 2015

See weather overviewHow to use our weather pages